Simultaneous Nadir Overpasses (SNOs) Predictions

Prediction of SNOs between GOES-15 and NPP Satellite Orbit:

Table of predicted SNOs for the next 14.0 days since TLE Epoch: 4/4/2015
Index Date Time (GOES-15) GOES-15 Lat,Lon NPP Lat,Lon Distance(km) Time Diff (sec)
1 04/05/2015 10:45:06 0.04,-134.76 0.79,-138.17 388.80 80
2 04/06/2015 10:23:40 0.04,-134.80 -0.20,-133.63 132.39 80
3 04/07/2015 22:48:14 -0.04,-134.81 -0.96,-138.94 469.77 80
4 04/08/2015 22:29:28 -0.04,-134.85 0.04,-134.40 51.21 80
5 04/11/2015 10:32:28 0.04,-134.99 0.10,-135.14 17.84 80
6 04/13/2015 22:35:35 -0.05,-135.02 -0.24,-135.91 101.32 80
7 04/14/2015 22:16:49 -0.05,-135.05 0.76,-131.37 418.69 80
8 04/16/2015 10:38:35 0.05,-135.14 0.37,-136.65 171.68 80
9 04/17/2015 10:17:09
